#timestamp,LO_Frequency,Hit,StdDev 
1634738415.7,286046994.6,N
1634738435.6,286046994.4,N
1634738455.4,286046992.0,Y
1634738475.2,286046997.6,P
1634738495.1,286046996.7,N
1634738496.0,286046996.7,P
1634738515.8,286046997.2,Y
1634738535.7,286047002.8,P
1634738555.5,286047002.6,N
1634738575.3,286046999.8,N
1634738595.2,286047002.7,N
1634738615.0,286047002.5,N
1634738615.9,286047002.5,N
1634738635.8,286047000.1,N
1634738655.6,286047000.4,N
1634738675.4,286047004.1,N
1634738695.3,286047005.7,N
1634738715.1,286047006.9,N
1634738735.8,286047008.4,Y
1634738755.7,286047004.5,P
1634738775.5,286047004.6,P
1634738795.4,286047004.6,P
1634738815.2,286047007.2,Y
1634738835.0,286047001.8,P
1634738835.9,286047001.8,N
1634738855.8,286047002.1,N
1634738875.6,286047002.3,N
1634738895.5,286047000.1,N
1634738915.3,286047001.6,N
1634738935.1,286047004.4,Y
1634738955.9,286047002.3,P
1634738975.7,286046999.9,N
1634738995.6,286047002.1,N
1634739015.4,286047003.8,Y
1634739035.2,286047004.0,P
1634739055.1,286047005.6,P
1634739056.0,286047005.6,P
1634739075.8,286047004.0,N
1634739095.7,286047004.1,N
1634739115.5,286047003.8,N
1634739135.3,286047001.9,N
1634739155.2,286047000.4,N
1634739175.0,286047001.2,N
1634739175.9,286047001.2,N
1634739195.7,286047001.2,N
1634739215.6,286047000.4,N
1634739235.4,286047003.5,N
1634739255.3,286047009.1,Y
1634739275.1,286047004.3,P
1634739295.8,286047001.5,N
1634739315.7,286047001.6,N
1634739335.5,286046999.7,N
1634739355.4,286047011.9,Y
1634739375.2,286046997.6,P
1634739395.0,286046995.2,N
1634739395.9,286046995.2,N
1634739415.8,286046995.8,N
1634739435.6,286046995.6,N
1634739455.4,286046993.4,N
1634739475.3,286046993.8,N
1634739495.1,286046993.7,N
1634739515.9,286046993.5,N
1634739535.7,286046993.5,N
1634739555.5,286046994.6,N
1634739575.4,286046994.6,N
1634739595.2,286046993.5,N
1634739615.1,286046994.4,N
1634739616.0,286046994.4,N
1634739635.8,286046994.8,N
1634739655.6,286046994.5,N
1634739675.5,286046994.3,N
1634739695.3,286046992.0,Y
1634739715.2,286046996.9,P
1634739735.9,286047011.9,P
1634739755.7,286046999.1,N
1634739775.6,286046999.2,N
1634739795.4,286046999.6,N
1634739815.2,286046999.2,N
1634739835.1,286046999.1,N
1634739836.0,286046999.1,N
1634739855.8,286046999.6,N
1634739875.7,286046996.7,N
1634739895.5,286046996.6,N
1634739915.3,286046997.1,N
1634739935.2,286046997.1,N
1634739955.0,286046997.6,N
1634739955.9,286046997.6,N
1634739975.8,286046998.0,N
1634739995.6,286046997.6,N
1634740015.4,286046998.0,N
1634740035.3,286046997.7,N
1634740055.1,286046998.0,N
1634740075.8,286046998.0,N
1634740095.7,286046998.0,N
1634740115.5,286046998.0,N
1634740135.4,286046998.0,N
1634740155.2,286046994.9,N
1634740175.0,286046995.0,N
1634740175.9,286046995.0,N
1634740195.8,286046995.5,N
1634740215.6,286046995.2,N
1634740235.4,286046996.1,N
1634740255.3,286046995.7,N
1634740275.1,286046995.5,N
1634740295.9,286046995.8,N
1634740315.7,286046993.3,Y
1634740335.5,286046996.8,P
1634740355.4,286046997.0,P
1634740375.2,286046999.2,P
1634740395.1,286046997.3,N
1634740396.0,286046997.3,Y
1634740415.8,286046998.1,P
1634740435.6,286047001.0,P
1634740455.5,286047000.6,N
1634740475.3,286047001.1,N
1634740495.1,286047000.9,N
1634740515.9,286046998.6,N
1634740535.7,286047001.2,N
1634740555.6,286047001.2,N
1634740575.4,286046998.7,N
1634740595.2,286046998.4,N
1634740615.1,286046999.0,N
1634740616.0,286046999.0,N
1634740635.8,286046999.3,N
1634740655.6,286046998.5,N
1634740675.5,286046999.1,N
1634740695.3,286046999.0,N
1634740715.2,286046999.0,N
1634740735.9,286046999.1,N
1634740755.7,286046996.9,N
1634740775.6,286046999.1,N
1634740795.4,286046996.5,N
1634740815.2,286046997.0,N
1634740835.1,286047011.9,Y
1634740836.0,286046999.6,P
1634740855.8,286046999.6,N
1634740875.7,286046999.3,N
1634740895.5,286046999.2,Y
1634740915.3,286047001.2,P
1634740935.2,286046998.3,N
1634740955.0,286046998.6,N
1634740955.9,286046998.6,N
1634740975.8,286046998.4,N
1634740995.6,286046998.4,N
1634741015.4,286046998.8,N
1634741035.3,286046998.8,N
1634741055.1,286046998.8,N
1634741075.8,286046999.4,N
1634741095.7,286046999.0,N
1634741115.5,286046999.0,N
1634741135.4,286046998.7,N
1634741155.2,286046998.7,N
1634741175.0,286046998.3,N
1634741175.9,286046998.3,N
1634741195.8,286046998.6,N
1634741215.6,286046998.7,N
1634741235.5,286046998.5,N
1634741255.3,286046998.4,N
1634741275.1,286046998.7,N
1634741295.9,286046998.9,N
1634741315.7,286046998.3,N
1634741335.5,286046998.8,N
1634741355.4,286046998.5,N
1634741375.2,286046998.7,N
1634741395.1,286046998.8,N
1634741396.0,286046998.8,N
1634741415.8,286046999.0,N
1634741435.6,286046999.6,N
1634741455.5,286046998.7,N
1634741475.3,286046998.9,Y
1634741495.1,286047000.9,P
1634741515.9,286047000.8,N
1634741535.7,286047001.1,N
1634741555.6,286047001.1,N
1634741575.4,286046998.5,N
1634741595.2,286047000.7,N
1634741615.1,286047001.0,N
1634741616.0,286047001.0,N
1634741635.8,286047001.2,N
1634741655.6,286047000.7,N
1634741675.5,286046998.8,N
1634741695.3,286046998.6,N
1634741715.2,286046999.0,N
1634741735.9,286046998.3,N
1634741755.7,286047001.2,N
1634741805.6,286047000.9,E
1634741815.5,286046998.6,N
1634741835.4,286046997.0,P
1634741855.2,286046996.5,P
1634741875.0,286046999.2,N
1634741875.9,286046999.2,N
1634741895.8,286046999.1,N
1634741915.6,286046999.2,N
1634741935.5,286046999.6,N
1634741955.3,286046999.1,N
1634741975.1,286046996.9,Y
1634741995.9,286047000.7,P
